[[{"header":{"parameterUnit":"m.s-1","parameterCategory":1,"la1":30.2991,"la2":30.254,"lo1":-89.0895,"lo2":-89.0444,"dy":0.0017,"dx":0.0017,"nx":28,"ny":28,"refTime":"2025-11-17T09:00:00:Z","depth":0,"parameterNumber":2,"parameterNumberName":"U-component_of_WINDS"},"data":[0,0,0,0,0,0,0,0,0,0,0,0,0,0,0,0,0,0,0,0,0,0,0,0,0,0,0,0,0,0,0,0,0,0,0,0,0,0,0,0,0,0,0,0,0,0,0,0,0,0,0,0,0,0,0,0,0,0,-2.1129,-2.113,0,-2.1232,-2.1233,-2.1234,-2.1245,-2.1244,-2.1243,-2.1242,-2.1347,-2.1351,-2.1355,0,0,0,0,0,0,0,0,0,0,0,0,0,-2.0945,-2.0948,-2.1129,-2.113,-2.1132,-2.1232,-2.1233,-2.1235,-2.1245,-2.1244,-2.1242,-2.1241,-2.1346,-2.1351,-2.1355,0,0,0,0,0,0,0,0,0,0,0,0,0,-2.1034,-2.0949,-2.1129,-2.1149,-2.1152,-2.1232,-2.1233,-2.1235,-2.1245,-2.1244,-2.1242,-2.1241,-2.1345,-2.135,-2.1356,-2.1423,0,0,-2.1373,-2.1376,0,0,0,0,0,0,0,0,-2.1029,-2.1041,-2.1145,-2.1148,-2.1151,-2.1224,-2.1207,-2.1298,-2.1246,-2.121,-2.1242,-2.124,-2.1308,-2.1316,-2.1339,-2.1428,-2.1432,-2.1374,-2.1377,-2.138,-2.1381,0,0,0,0,0,0,0,-2.1023,-2.1036,-2.117,-2.1146,-2.115,-2.1154,-2.1165,-2.1224,-2.1266,-2.1213,-2.1214,-2.1226,-2.1309,-2.1334,-2.1342,-2.1434,-2.1374,-2.1379,-2.1382,-2.1384,-2.1587,-2.1589,0,0,0,0,0,0,-2.1012,-2.1031,-2.1166,-2.1173,-2.1085,-2.1158,-2.1171,-2.1202,-2.1266,-2.1274,-2.1227,-2.1226,-2.1325,-2.1335,-2.1345,-2.143,-2.138,-2.1385,-2.1388,-2.1585,-2.1588,-2.159,0,0,0,0,0,0,-2.1008,-2.1024,-2.1162,-2.1102,-2.112,-2.1163,-2.1199,-2.1205,-2.1229,-2.1277,-2.1284,-2.1244,-2.1324,-2.1337,-2.1404,-2.1434,-2.1388,-2.1393,-2.1583,-2.1586,-2.1589,-2.1598,0,0,0,0,0,0,-2.1003,-2.1023,-2.1047,-2.1103,-2.1123,-2.1218,-2.12,-2.1208,-2.1239,-2.1239,-2.1295,-2.1302,-2.1324,-2.1396,-2.141,-2.1441,-2.1397,-2.1581,-2.1584,-2.1588,-2.1595,-2.1601,-2.1606,0,0,0,0,0,-2.0996,-2.1045,-2.1049,-2.1065,-2.1155,-2.122,-2.1232,-2.1255,-2.1241,-2.1267,-2.1299,-2.1301,-2.1429,-2.1403,-2.1419,-2.1451,-2.1579,-2.1583,-2.1588,-2.1593,-2.16,-2.1606,0,0,0,0,0,0,-2.0991,-2.1053,-2.1057,-2.1125,-2.1167,-2.1221,-2.1254,-2.1261,-2.1308,-2.1305,-2.1333,-2.1346,-2.1412,-2.1439,-2.1409,-2.1522,-2.1503,-2.151,-2.1501,-2.1508,-2.1513,-2.1505,-2.1402,0,0,0,0,0,-2.0998,-2.1045,-2.1097,-2.1152,-2.1173,-2.1211,-2.1239,-2.1254,-2.1299,-2.1317,-2.1353,-2.1397,-2.1447,-2.1479,-2.1528,-2.1601,-2.1614,-2.1631,-2.1637,-2.1641,-2.1647,-2.1689,-2.1698,-2.1604,-2.1604,-2.1604,0,0,-2.1012,-2.1052,-2.1079,-2.1152,-2.1186,-2.1236,-2.1225,-2.1277,-2.1314,-2.1325,-2.139,-2.1419,-2.147,-2.1541,-2.1573,-2.1565,-2.1676,-2.1646,-2.1649,-2.1653,-2.1695,-2.1704,-2.1711,-2.1607,-2.1607,-2.1606,0,0,-2.1063,-2.1097,-2.1148,-2.1184,-2.1237,-2.1262,-2.1275,-2.133,-2.1349,-2.1416,-2.1426,-2.1472,-2.1557,-2.1594,-2.1624,-2.1695,-2.1699,-2.1711,-2.1737,-2.1778,-2.1786,-2.1792,-2.1818,-2.1827,-2.1717,-2.1717,-2.1717,0,-2.1073,-2.1147,-2.1173,-2.1226,-2.1258,-2.1273,-2.1325,-2.1359,-2.1425,-2.1448,-2.1438,-2.1549,-2.1584,-2.1665,-2.1682,-2.1706,-2.1722,-2.1703,-2.1783,-2.179,-2.1796,-2.1821,-2.1831,-2.1718,-2.1718,-2.1718,-2.1717,0,-2.1159,-2.121,-2.1245,-2.131,-2.1347,-2.1399,-2.1435,-2.1469,-2.1483,-2.151,-2.158,-2.1624,-2.1683,-2.1704,-2.1716,-2.1788,-2.1781,-2.1777,-2.1757,-2.1806,-2.183,-2.184,-2.1719,-2.1719,-2.1718,-2.1718,0,0,-2.1204,-2.1286,-2.1298,-2.1329,-2.1392,-2.1432,-2.1488,-2.1546,-2.1576,-2.1623,-2.167,-2.1745,-2.1743,-2.1777,-2.1795,-2.1832,-2.1887,-2.1824,-2.1825,-2.1834,-2.197,-2.1972,-2.1982,-2.1892,-2.1894,-2.1895,-2.1966,0,-2.1262,-2.1358,-2.1386,-2.1468,-2.1517,-2.1534,-2.1583,-2.1627,-2.1655,-2.1702,-2.1734,-2.1787,-2.178,-2.1801,-2.1838,-2.1872,-2.1915,-2.1868,-2.1936,-2.1938,-2.1921,-2.1995,-2.1996,-2.206,-2.1975,-2.1977,-2.1978,0,-2.134,-2.139,-2.1477,-2.1536,-2.1558,-2.16,-2.1659,-2.1703,-2.1756,-2.1774,-2.1815,-2.1831,-2.1891,-2.1871,-2.1955,-2.1922,-2.1953,-2.1975,-2.1978,-2.1984,-2.1959,-2.2002,-2.2081,-2.209,-2.1993,-2.1992,-2.1991,0,-2.1365,-2.1454,-2.1518,-2.1544,-2.1615,-2.1645,-2.1676,-2.1727,-2.1762,-2.1813,-2.1837,-2.1895,-2.1926,-2.1972,-2.2004,-2.1986,-2.2086,-2.2068,-2.2103,-2.2103,-2.2121,-2.2119,-2.2205,-2.2143,-2.2143,-2.2143,-2.2143,0,-2.1425,-2.1478,-2.1531,-2.157,-2.1631,-2.1664,-2.1724,-2.1756,-2.1802,-2.1849,-2.1868,-2.1913,-2.1953,-2.2003,-2.203,-2.2096,-2.211,-2.2128,-2.2133,-2.2125,-2.2123,-2.2143,-2.2139,-2.2145,-2.2145,-2.2144,-2.2144,0,-2.1461,-2.1498,-2.157,-2.1632,-2.165,-2.1692,-2.1746,-2.1786,-2.1817,-2.1877,-2.1893,-2.1942,-2.2003,-2.2041,-2.2117,-2.2135,-2.2209,-2.2213,-2.219,-2.2193,-2.2226,-2.2222,-2.2327,-2.2343,-2.2272,-2.2272,-2.2273,0,-2.1496,-2.1537,-2.1605,-2.1638,-2.167,-2.1723,-2.176,-2.1796,-2.1833,-2.1899,-2.1932,-2.1994,-2.2045,-2.2142,-2.2185,-2.2245,-2.2251,-2.2284,-2.226,-2.2251,-2.2251,-2.2248,-2.2253,-2.2287,-2.2288,-2.2288,-2.2289,0,-2.1554,-2.1572,-2.1623,-2.1683,-2.1726,-2.1775,-2.1823,-2.185,-2.1895,-2.1937,-2.1999,-2.204,-2.212,-2.2182,-2.2247,-2.228,-2.2293,-2.2297,-2.2308,-2.2298,-2.2283,-2.2292,-2.22,-2.2293,-2.2293,-2.2292,-2.2292,-2.2292,-2.159,-2.1629,-2.1683,-2.1741,-2.1783,-2.1828,-2.187,-2.1908,-2.1961,-2.2029,-2.2048,-2.2114,-2.217,-2.2258,-2.2294,-2.2347,-2.2342,-2.2359,-2.2363,-2.2366,-2.2366,-2.2277,-2.2359,-2.2359,-2.2359,-2.2359,-2.2359,0,-2.1649,-2.1686,-2.174,-2.1808,-2.1854,-2.1864,-2.1919,-2.1958,-2.2016,-2.2067,-2.2118,-2.2192,-2.2254,-2.2304,-2.2368,-2.2402,-2.2409,-2.2417,-2.2414,-2.2422,-2.2367,-2.235,-2.241,-2.241,-2.241,-2.241,-2.241,-2.241,-2.1685,-2.1751,-2.1776,-2.1864,-2.1902,-2.1967,-2.1998,-2.2042,-2.2083,-2.2165,-2.2216,-2.2249,-2.2301,-2.237,-2.2428,-2.2441,-2.2463,-2.247,-2.2485,-2.2431,-2.2426,-2.242,-2.2405,-2.2475,-2.2475,-2.2536,-2.2536,-2.2537]},{"header":{"parameterUnit":"m.s-1","parameterCategory":1,"la1":30.2991,"la2":30.254,"lo1":-89.0895,"lo2":-89.0444,"dy":0.0017,"dx":0.0017,"nx":28,"ny":28,"refTime":"2025-11-17T09:00:00:Z","depth":0,"parameterNumber":3,"parameterNumberName":"V-component_of_WINDS"},"data":[0,0,0,0,0,0,0,0,0,0,0,0,0,0,0,0,0,0,0,0,0,0,0,0,0,0,0,0,0,0,0,0,0,0,0,0,0,0,0,0,0,0,0,0,0,0,0,0,0,0,0,0,0,0,0,0,0,0,1.9195,1.9195,0,1.9232,1.9232,1.9232,1.9254,1.9255,1.9255,1.9255,1.9291,1.9292,1.9293,0,0,0,0,0,0,0,0,0,0,0,0,0,1.9145,1.9146,1.9195,1.9195,1.9196,1.9231,1.9232,1.9232,1.9254,1.9255,1.9255,1.9255,1.9291,1.9292,1.9293,0,0,0,0,0,0,0,0,0,0,0,0,0,1.9173,1.9146,1.9195,1.9211,1.9213,1.9231,1.9232,1.9233,1.9254,1.9255,1.9255,1.9255,1.929,1.9292,1.9293,1.9298,0,0,1.9297,1.9297,0,0,0,0,0,0,0,0,1.9171,1.9175,1.9208,1.921,1.9212,1.9239,1.9228,1.9254,1.9254,1.9239,1.9255,1.9255,1.9273,1.9276,1.9283,1.9299,1.9301,1.9297,1.9298,1.9298,1.9299,0,0,0,0,0,0,0,1.9169,1.9173,1.9209,1.9209,1.9211,1.9217,1.9221,1.9233,1.9255,1.924,1.9242,1.9246,1.9274,1.9281,1.9284,1.9301,1.9297,1.9298,1.9299,1.9299,1.9327,1.9327,0,0,0,0,0,0,1.9165,1.9171,1.9208,1.9211,1.9192,1.9218,1.9222,1.923,1.9255,1.9258,1.9246,1.9247,1.9279,1.9282,1.9285,1.9294,1.9298,1.9299,1.93,1.9327,1.9327,1.9327,0,0,0,0,0,0,1.9164,1.9168,1.9207,1.9192,1.9197,1.9219,1.9227,1.9231,1.9237,1.9259,1.9263,1.9249,1.9279,1.9283,1.9295,1.9295,1.93,1.9301,1.9327,1.9327,1.9327,1.931,0,0,0,0,0,0,1.9162,1.9167,1.9169,1.9191,1.9198,1.9216,1.9227,1.9231,1.924,1.9241,1.9263,1.9266,1.928,1.9293,1.9296,1.9297,1.9302,1.9327,1.9327,1.9327,1.9311,1.931,1.9309,0,0,0,0,0,1.916,1.9162,1.9169,1.9173,1.92,1.9216,1.9219,1.9235,1.924,1.9242,1.9256,1.9266,1.9295,1.9294,1.9298,1.9299,1.9327,1.9327,1.9327,1.9311,1.931,1.9309,0,0,0,0,0,0,1.9138,1.9165,1.9173,1.9182,1.9197,1.922,1.9222,1.9233,1.9246,1.9247,1.9266,1.927,1.9281,1.9291,1.929,1.9306,1.9312,1.9313,1.9299,1.9298,1.9297,1.9294,1.9303,0,0,0,0,0,1.9134,1.9145,1.9168,1.9174,1.9181,1.92,1.9208,1.9219,1.9235,1.9241,1.9256,1.927,1.9283,1.9291,1.9304,1.9313,1.9319,1.9316,1.9315,1.9314,1.9314,1.9322,1.9321,1.9326,1.9326,1.9326,0,0,1.9126,1.9142,1.9148,1.917,1.9182,1.9193,1.9205,1.9216,1.9224,1.9242,1.9255,1.9267,1.9284,1.9296,1.9301,1.9304,1.9314,1.9313,1.9312,1.9313,1.9321,1.9321,1.932,1.9326,1.9326,1.9326,0,0,1.9117,1.913,1.9138,1.915,1.917,1.9184,1.9185,1.9207,1.9216,1.923,1.9244,1.9255,1.9275,1.9288,1.9298,1.9297,1.9307,1.9301,1.9295,1.9302,1.9302,1.9301,1.9302,1.9303,1.9301,1.9301,1.9301,0,1.9105,1.9122,1.914,1.915,1.916,1.9178,1.9186,1.9198,1.922,1.9227,1.9231,1.926,1.9273,1.9288,1.9288,1.9295,1.9298,1.9298,1.93,1.93,1.93,1.9302,1.9302,1.93,1.93,1.93,1.93,0,1.9107,1.9118,1.9122,1.9145,1.9155,1.9164,1.9184,1.9193,1.9204,1.9217,1.9232,1.9248,1.9266,1.9271,1.928,1.9288,1.929,1.9297,1.9303,1.9299,1.93,1.9301,1.9299,1.9299,1.93,1.93,0,0,1.9083,1.9117,1.9118,1.913,1.9154,1.9164,1.9174,1.9193,1.92,1.9216,1.9226,1.9245,1.9252,1.9263,1.9275,1.9281,1.9282,1.9288,1.9289,1.9287,1.9293,1.9289,1.9289,1.9289,1.9289,1.9289,1.9292,0,1.9079,1.9099,1.9117,1.9131,1.9143,1.9162,1.9172,1.9188,1.9201,1.9214,1.9229,1.9243,1.925,1.9257,1.9265,1.928,1.9284,1.928,1.93,1.93,1.9295,1.9289,1.9284,1.9286,1.9293,1.9293,1.9293,0,1.9075,1.9092,1.9107,1.9133,1.9139,1.9147,1.9166,1.9178,1.9198,1.9207,1.9221,1.9234,1.9247,1.9253,1.9272,1.927,1.9279,1.9288,1.9289,1.9291,1.9296,1.9293,1.9287,1.9287,1.9294,1.9294,1.9294,0,1.9058,1.9084,1.9098,1.9107,1.9136,1.9142,1.9154,1.9174,1.9185,1.9202,1.9209,1.9227,1.9237,1.9251,1.927,1.9272,1.9288,1.9294,1.9297,1.9297,1.93,1.9299,1.9296,1.9305,1.9305,1.9305,1.9305,0,1.9052,1.9061,1.9091,1.9099,1.911,1.9131,1.9142,1.9156,1.9174,1.9186,1.9203,1.9214,1.9238,1.9252,1.9266,1.9281,1.9285,1.9294,1.9298,1.9293,1.9292,1.9299,1.93,1.9305,1.9305,1.9305,1.9305,0,1.9034,1.9054,1.907,1.9098,1.9105,1.9112,1.9136,1.9145,1.9161,1.9176,1.9181,1.9205,1.9223,1.9243,1.9266,1.9276,1.9291,1.9296,1.9285,1.9287,1.9289,1.9289,1.929,1.9292,1.9299,1.9299,1.9299,0,1.9029,1.9037,1.9065,1.9075,1.9087,1.9102,1.9114,1.9135,1.9147,1.9171,1.9178,1.9198,1.9214,1.9242,1.9262,1.9281,1.9287,1.9287,1.929,1.9286,1.9289,1.9288,1.929,1.9285,1.9285,1.9285,1.9285,0,1.9017,1.9028,1.9044,1.9064,1.9078,1.9094,1.9112,1.9119,1.9144,1.9156,1.9175,1.9188,1.9214,1.9234,1.9256,1.9269,1.9282,1.9284,1.9286,1.9281,1.9274,1.9279,1.9282,1.9283,1.9284,1.9284,1.9284,1.9284,1.9007,1.9015,1.9038,1.9056,1.9071,1.9088,1.9099,1.9116,1.9133,1.9156,1.9168,1.9187,1.9209,1.924,1.9254,1.927,1.9273,1.9276,1.9276,1.9277,1.9276,1.9272,1.9274,1.9274,1.9274,1.9274,1.9274,0,1.8997,1.9013,1.9029,1.9054,1.9069,1.908,1.9101,1.9112,1.9129,1.9149,1.9166,1.9189,1.9208,1.9231,1.9252,1.9261,1.9267,1.9266,1.9266,1.9269,1.9271,1.9268,1.9261,1.9261,1.9261,1.9261,1.9261,1.9261,1.8994,1.901,1.9023,1.9048,1.9064,1.9083,1.9095,1.9111,1.9127,1.9152,1.9169,1.9183,1.9205,1.9228,1.9248,1.9254,1.9261,1.9258,1.9266,1.9268,1.9269,1.927,1.9267,1.926,1.926,1.9263,1.9263,1.9263]}]]